"Sample Date","Sample Time","Sample Value","Units","Flow Rate","Sample Interval","Number Channels","Micron Size 0","Counts/Channel 0","Micron Size 1","Counts/Channel 1","Micron Size 2","Counts/Channel 2","Micron Size 3","Counts/Channel 3","Micron Size 4","Counts/Channel 4","Micron Size 5","Counts/Channel 5","Micron Size 6","Counts/Channel 6","Micron Size 7","Counts/Channel 7","Micron Size 8","Counts/Channel 8","Micron Size 9","Counts/Channel 9","Micron Size 10","Counts/Channel 10","Micron Size 11","Counts/Channel 11","Micron Size 12","Counts/Channel 12","Micron Size 13","Counts/Channel 13","Micron Size 14","Counts/Channel 14","Micron Size 15","Counts/Channel 15","Micron Size 16","Counts/Channel 16","Micron Size 17","Counts/Channel 17","Micron Size 18","Counts/Channel 18","Micron Size 19","Counts/Channel 19","Micron Size 20","Counts/Channel 20","Micron Size 21","Counts/Channel 21","Micron Size 22","Counts/Channel 22","Micron Size 23","Counts/Channel 23","Micron Size 24","Counts/Channel 24","Micron Size 25","Counts/Channel 25","Micron Size 26","Counts/Channel 26","Micron Size 27","Counts/Channel 27","Micron Size 28","Counts/Channel 28","Micron Size 29","Counts/Channel 29","Micron Size 30","Counts/Channel 30","Micron Size 31","Counts/Channel 31"
"03/09/08","15:00:03",234165.000,"cc",28277.549,6.00,6,0.100,74978.000,0.200,57840.000,0.300,95107.000,0.500,6087.000,1.000,152.000,5.000,1.000
"03/09/08","15:00:09",200725.000,"cc",28315.406,6.00,6,0.100,57226.000,0.200,41395.000,0.300,94551.000,0.500,7324.000,1.000,229.000,5.000,0
"03/09/08","15:00:15",231452.000,"cc",28339.496,6.00,6,0.100,73937.000,0.200,56590.000,0.300,94362.000,0.500,6377.000,1.000,186.000,5.000,0
"03/09/08","15:00:21",331754.000,"cc",28356.170,6.00,6,0.100,132870.000,0.200,104994.000,0.300,90420.000,0.500,3343.000,1.000,127.000,5.000,0
"03/09/08","15:00:27",304460.000,"cc",28308.256,6.00,6,0.100,111345.000,0.200,91807.000,0.300,97376.000,0.500,3825.000,1.000,107.000,5.000,0
"03/09/08","15:00:33",364477.000,"cc",28272.471,6.00,6,0.100,162009.000,0.200,120815.000,0.300,78997.000,0.500,2563.000,1.000,93.000,5.000,0
"03/09/08","15:00:39",334653.000,"cc",28307.725,6.00,6,0.100,132626.000,0.200,107187.000,0.300,91505.000,0.500,3206.000,1.000,129.000,5.000,0
"03/09/08","15:00:45",337449.000,"cc",28328.961,6.00,6,0.100,136807.000,0.200,110475.000,0.300,87265.000,0.500,2787.000,1.000,115.000,5.000,0
"03/09/08","15:00:51",361116.000,"cc",28378.385,6.00,6,0.100,156295.000,0.200,122165.000,0.300,80167.000,0.500,2408.000,1.000,81.000,5.000,0
"03/09/08","15:00:57",385664.000,"cc",28287.758,6.00,6,0.100,188025.000,0.200,129805.000,0.300,65908.000,0.500,1840.000,1.000,86.000,5.000,0
"03/09/08","15:01:03",434792.000,"cc",28323.881,6.00,6,0.100,230189.000,0.200,146552.000,0.300,56578.000,0.500,1404.000,1.000,69.000,5.000,0
"03/09/08","15:01:09",401045.000,"cc",28332.895,6.00,6,0.100,188204.000,0.200,139581.000,0.300,71139.000,0.500,2015.000,1.000,106.000,5.000,0
"03/09/08","15:01:15",396451.000,"cc",28292.539,6.00,6,0.100,186320.000,0.200,137611.000,0.300,70465.000,0.500,1952.000,1.000,103.000,5.000,0
"03/09/08","15:01:21",439713.000,"cc",28303.686,6.00,6,0.100,247241.000,0.200,143766.000,0.300,47420.000,0.500,1211.000,1.000,75.000,5.000,0
"03/09/08","15:01:27",458961.000,"cc",28305.121,6.00,6,0.100,274511.000,0.200,143272.000,0.300,40051.000,0.500,1043.000,1.000,84.000,5.000,0
"03/09/08","15:01:33",449335.000,"cc",28315.143,6.00,6,0.100,281194.000,0.200,133499.000,0.300,33648.000,0.500,921.000,1.000,73.000,5.000,0
"03/09/08","15:01:39",474122.000,"cc",28304.635,6.00,6,0.100,287312.000,0.200,147718.000,0.300,37951.000,0.500,1073.000,1.000,68.000,5.000,0
"03/09/08","15:01:45",435596.000,"cc",28317.607,6.00,6,0.100,228203.000,0.200,151795.000,0.300,54010.000,0.500,1499.000,1.000,89.000,5.000,0
"03/09/08","15:01:51",415486.000,"cc",28336.014,6.00,6,0.100,209763.000,0.200,148232.000,0.300,55804.000,0.500,1594.000,1.000,93.000,5.000,0
"03/09/08","15:01:57",441978.000,"cc",28307.748,6.00,6,0.100,239472.000,0.200,153196.000,0.300,47797.000,0.500,1426.000,1.000,87.000,5.000,0
"03/09/08","15:02:03",471034.000,"cc",28371.811,6.00,6,0.100,285269.000,0.200,148738.000,0.300,35971.000,0.500,979.000,1.000,77.000,5.000,0
"03/09/08","15:02:09",471727.000,"cc",28321.371,6.00,6,0.100,280078.000,0.200,151564.000,0.300,38856.000,0.500,1125.000,1.000,104.000,5.000,0
"03/09/08","15:02:15",463861.000,"cc",28331.473,6.00,6,0.100,285882.000,0.200,142507.000,0.300,34415.000,0.500,975.000,1.000,82.000,5.000,0
"03/09/08","15:02:21",482867.000,"cc",28234.695,6.00,6,0.100,311035.000,0.200,141667.000,0.300,29262.000,0.500,827.000,1.000,76.000,5.000,0
"03/09/08","15:02:27",453307.000,"cc",28254.590,6.00,6,0.100,308330.000,0.200,121183.000,0.300,23051.000,0.500,669.000,1.000,74.000,5.000,0
"03/09/08","15:02:33",488713.000,"cc",28317.703,6.00,6,0.100,306893.000,0.200,150267.000,0.300,30538.000,0.500,925.000,1.000,90.000,5.000,0
"03/09/08","15:02:39",482522.000,"cc",28385.068,6.00,6,0.100,323588.000,0.200,134487.000,0.300,23622.000,0.500,756.000,1.000,69.000,5.000,0
"03/09/08","15:02:45",450068.000,"cc",28335.145,6.00,6,0.100,324420.000,0.200,108645.000,0.300,16435.000,0.500,520.000,1.000,48.000,5.000,0
"03/09/08","15:02:51",446215.000,"cc",28327.516,6.00,6,0.100,325474.000,0.200,104583.000,0.300,15533.000,0.500,573.000,1.000,52.000,5.000,0
"03/09/08","15:02:57",437168.000,"cc",28352.104,6.00,6,0.100,319594.000,0.200,102210.000,0.300,14784.000,0.500,520.000,1.000,60.000,5.000,0
"03/09/08","15:03:03",455015.000,"cc",28281.676,6.00,6,0.100,327778.000,0.200,110089.000,0.300,16556.000,0.500,549.000,1.000,43.000,5.000,0
"03/09/08","15:03:09",430519.000,"cc",28290.035,6.00,6,0.100,318726.000,0.200,97250.000,0.300,13920.000,0.500,553.000,1.000,70.000,5.000,0
"03/09/08","15:03:15",467164.000,"cc",28403.738,6.00,6,0.100,328928.000,0.200,118751.000,0.300,18683.000,0.500,715.000,1.000,87.000,5.000,0
"03/09/08","15:03:21",416658.000,"cc",28277.031,6.00,6,0.100,266049.000,0.200,128952.000,0.300,20740.000,0.500,811.000,1.000,106.000,5.000,0
"03/09/08","15:03:27",486939.000,"cc",28332.606,6.00,6,0.100,330911.000,0.200,133276.000,0.300,21742.000,0.500,897.000,1.000,113.000,5.000,0
"03/09/08","15:03:33",455608.000,"cc",28281.606,6.00,6,0.100,330527.000,0.200,108851.000,0.300,15429.000,0.500,713.000,1.000,88.000,5.000,0
"03/09/08","15:03:39",419331.000,"cc",28380.096,6.00,6,0.100,275268.000,0.200,124579.000,0.300,18576.000,0.500,791.000,1.000,117.000,5.000,0
"03/09/08","15:03:45",479554.000,"cc",28309.877,6.00,6,0.100,337195.000,0.200,123391.000,0.300,18123.000,0.500,747.000,1.000,98.000,5.000,0
"03/09/08","15:03:51",492388.000,"cc",28303.412,6.00,6,0.100,324461.000,0.200,143305.000,0.300,23633.000,0.500,884.000,1.000,105.000,5.000,0
"03/09/08","15:03:57",421548.000,"cc",28262.908,6.00,6,0.100,262779.000,0.200,135803.000,0.300,22014.000,0.500,842.000,1.000,110.000,5.000,0
"03/09/08","15:04:03",475494.000,"cc",28318.121,6.00,6,0.100,304858.000,0.200,143346.000,0.300,26153.000,0.500,1007.000,1.000,130.000,5.000,0
"03/09/08","15:04:09",459086.000,"cc",28312.650,6.00,6,0.100,334870.000,0.200,108986.000,0.300,14541.000,0.500,613.000,1.000,76.000,5.000,0
"03/09/08","15:04:15",449345.000,"cc",28302.832,6.00,6,0.100,331024.000,0.200,104046.000,0.300,13650.000,0.500,555.000,1.000,70.000,5.000,0
"03/09/08","15:04:21",420482.000,"cc",28301.834,6.00,6,0.100,318324.000,0.200,89984.000,0.300,11562.000,0.500,523.000,1.000,89.000,5.000,0
"03/09/08","15:04:27",407320.000,"cc",28305.404,6.00,6,0.100,270094.000,0.200,118736.000,0.300,17648.000,0.500,729.000,1.000,113.000,5.000,0
"03/09/08","15:04:33",460660.000,"cc",28321.123,6.00,6,0.100,331097.000,0.200,112922.000,0.300,15857.000,0.500,695.000,1.000,89.000,5.000,0
"03/09/08","15:04:39",436284.000,"cc",28328.090,6.00,6,0.100,316342.000,0.200,104111.000,0.300,14992.000,0.500,743.000,1.000,96.000,5.000,0
"03/09/08","15:04:45",450238.000,"cc",28324.861,6.00,6,0.100,329369.000,0.200,105737.000,0.300,14349.000,0.500,697.000,1.000,86.000,5.000,0
"03/09/08","15:04:51",443741.000,"cc",28371.533,6.00,6,0.100,323933.000,0.200,104460.000,0.300,14566.000,0.500,686.000,1.000,96.000,5.000,0
"03/09/08","15:04:57",410680.000,"cc",28324.225,6.00,6,0.100,269166.000,0.200,122899.000,0.300,17655.000,0.500,853.000,1.000,107.000,5.000,0
"03/09/08","15:05:03",420963.000,"cc",28293.422,6.00,6,0.100,314930.000,0.200,92992.000,0.300,12331.000,0.500,622.000,1.000,88.000,5.000,0
"03/09/08","15:05:09",470602.000,"cc",28296.225,6.00,6,0.100,340015.000,0.200,113762.000,0.300,16016.000,0.500,710.000,1.000,99.000,5.000,0
"03/09/08","15:05:15",483847.000,"cc",28358.275,6.00,6,0.100,332520.000,0.200,130248.000,0.300,20111.000,0.500,865.000,1.000,103.000,5.000,0
"03/09/08","15:05:21",404105.000,"cc",28338.227,6.00,6,0.100,272114.000,0.200,114759.000,0.300,16392.000,0.500,761.000,1.000,79.000,5.000,0
"03/09/08","15:05:27",417731.000,"cc",28258.648,6.00,6,0.100,274464.000,0.200,124599.000,0.300,17773.000,0.500,806.000,1.000,89.000,5.000,0
"03/09/08","15:05:33",398752.000,"cc",28365.621,6.00,6,0.100,272085.000,0.200,111153.000,0.300,14792.000,0.500,652.000,1.000,70.000,5.000,0
"03/09/08","15:05:39",487358.000,"cc",28348.100,6.00,6,0.100,320844.000,0.200,141732.000,0.300,23711.000,0.500,959.000,1.000,112.000,5.000,0
"03/09/08","15:05:45",418715.000,"cc",28307.635,6.00,6,0.100,269885.000,0.200,129438.000,0.300,18502.000,0.500,796.000,1.000,94.000,5.000,0
"03/09/08","15:05:51",494149.000,"cc",28315.918,6.00,6,0.100,312753.000,0.200,155350.000,0.300,24882.000,0.500,1038.000,1.000,126.000,5.000,0
"03/09/08","15:05:57",486818.000,"cc",28275.225,6.00,6,0.100,314024.000,0.200,150233.000,0.300,21604.000,0.500,863.000,1.000,94.000,5.000,0
"03/09/08","15:06:03",428716.000,"cc",28293.461,6.00,6,0.100,268276.000,0.200,140630.000,0.300,18914.000,0.500,804.000,1.000,92.000,5.000,0
"03/09/08","15:06:09",490880.000,"cc",28301.791,6.00,6,0.100,329615.000,0.200,139955.000,0.300,20202.000,0.500,997.000,1.000,111.000,5.000,0
"03/09/08","15:06:15",418281.000,"cc",28363.514,6.00,6,0.100,269602.000,0.200,128793.000,0.300,18638.000,0.500,1124.000,1.000,124.000,5.000,0
"03/09/08","15:06:21",486231.000,"cc",28342.283,6.00,6,0.100,318205.000,0.200,142954.000,0.300,23455.000,0.500,1419.000,1.000,198.000,5.000,0
"03/09/08","15:06:27",413370.000,"cc",28262.184,6.00,6,0.100,265064.000,0.200,127521.000,0.300,19451.000,0.500,1209.000,1.000,125.000,5.000,0
"03/09/08","15:06:33",485484.000,"cc",28339.785,6.00,6,0.100,328242.000,0.200,134944.000,0.300,20996.000,0.500,1185.000,1.000,117.000,5.000,0
"03/09/08","15:06:39",490223.000,"cc",28363.131,6.00,6,0.100,326918.000,0.200,139706.000,0.300,22260.000,0.500,1199.000,1.000,140.000,5.000,0
"03/09/08","15:06:45",471084.000,"cc",28345.449,6.00,6,0.100,329747.000,0.200,121745.000,0.300,18418.000,0.500,1064.000,1.000,110.000,5.000,0
"03/09/08","15:06:51",485783.000,"cc",28274.078,6.00,6,0.100,321832.000,0.200,139795.000,0.300,22823.000,0.500,1190.000,1.000,143.000,5.000,0
"03/09/08","15:06:57",489296.000,"cc",28291.811,6.00,6,0.100,329254.000,0.200,138186.000,0.300,20720.000,0.500,995.000,1.000,141.000,5.000,0
"03/09/08","15:07:03",444031.000,"cc",28286.375,6.00,6,0.100,313015.000,0.200,112971.000,0.300,16671.000,0.500,1128.000,1.000,246.000,5.000,0
"03/09/08","15:07:09",455800.000,"cc",28267.352,6.00,6,0.100,324904.000,0.200,111268.000,0.300,17731.000,0.500,1514.000,1.000,383.000,5.000,0
"03/09/08","15:07:15",450390.000,"cc",28288.865,6.00,6,0.100,324937.000,0.200,108168.000,0.300,15816.000,0.500,1208.000,1.000,261.000,5.000,0
"03/09/08","15:07:21",482884.000,"cc",28490.201,6.00,6,0.100,331077.000,0.200,131052.000,0.300,19261.000,0.500,1262.000,1.000,232.000,5.000,0
"03/09/08","15:07:27",441224.000,"cc",28295.830,6.00,6,0.100,315305.000,0.200,106688.000,0.300,17291.000,0.500,1613.000,1.000,327.000,5.000,0
"03/09/08","15:07:33",442460.000,"cc",28259.701,6.00,6,0.100,319577.000,0.200,106324.000,0.300,15139.000,0.500,1200.000,1.000,220.000,5.000,0
"03/09/08","15:07:39",448152.000,"cc",28314.986,6.00,6,0.100,321404.000,0.200,109029.000,0.300,16000.000,0.500,1450.000,1.000,269.000,5.000,0
"03/09/08","15:07:45",462935.000,"cc",28346.600,6.00,6,0.100,326489.000,0.200,117098.000,0.300,17453.000,0.500,1611.000,1.000,284.000,5.000,0
"03/09/08","15:07:51",432873.000,"cc",28320.916,6.00,6,0.100,312638.000,0.200,102049.000,0.300,15956.000,0.500,1882.000,1.000,348.000,5.000,0
"03/09/08","15:07:57",468995.000,"cc",28325.684,6.00,6,0.100,325562.000,0.200,121723.000,0.300,19032.000,0.500,2193.000,1.000,484.000,5.000,1.000
"03/09/08","15:08:03",460604.000,"cc",28301.254,6.00,6,0.100,322103.000,0.200,118930.000,0.300,17464.000,0.500,1722.000,1.000,385.000,5.000,0
"03/09/08","15:08:09",446399.000,"cc",28330.922,6.00,6,0.100,317199.000,0.200,109758.000,0.300,17031.000,0.500,2041.000,1.000,370.000,5.000,0
"03/09/08","15:08:15",462703.000,"cc",28296.004,6.00,6,0.100,319095.000,0.200,121595.000,0.300,19504.000,0.500,2173.000,1.000,336.000,5.000,0
"03/09/08","15:08:21",448587.000,"cc",28360.895,6.00,6,0.100,311355.000,0.200,116637.000,0.300,18275.000,0.500,2043.000,1.000,277.000,5.000,0
"03/09/08","15:08:27",438449.000,"cc",28305.352,6.00,6,0.100,300811.000,0.200,114336.000,0.300,19542.000,0.500,3139.000,1.000,621.000,5.000,0
"03/09/08","15:08:33",422809.000,"cc",28315.369,6.00,6,0.100,303159.000,0.200,100165.000,0.300,15771.000,0.500,2977.000,1.000,737.000,5.000,0
"03/09/08","15:08:39",460498.000,"cc",28314.029,6.00,6,0.100,313543.000,0.200,118588.000,0.300,22037.000,0.500,4795.000,1.000,1534.000,5.000,1.000
"03/09/08","15:08:45",477753.000,"cc",28310.641,6.00,6,0.100,304034.000,0.200,140819.000,0.300,27732.000,0.500,4134.000,1.000,1034.000,5.000,0
"03/09/08","15:08:51",476123.000,"cc",28228.334,6.00,6,0.100,290527.000,0.200,149439.000,0.300,31332.000,0.500,3977.000,1.000,848.000,5.000,0
"03/09/08","15:08:57",473619.000,"cc",28366.568,6.00,6,0.100,304074.000,0.200,136297.000,0.300,28427.000,0.500,4054.000,1.000,766.000,5.000,1.000
"03/09/08","15:09:03",472888.000,"cc",28341.807,6.00,6,0.100,305093.000,0.200,138481.000,0.300,26111.000,0.500,2731.000,1.000,472.000,5.000,0
"03/09/08","15:09:09",472117.000,"cc",28272.162,6.00,6,0.100,272107.000,0.200,162884.000,0.300,34536.000,0.500,2279.000,1.000,311.000,5.000,0
"03/09/08","15:09:15",448121.000,"cc",28325.684,6.00,6,0.100,238043.000,0.200,160071.000,0.300,46516.000,0.500,3180.000,1.000,311.000,5.000,0
"03/09/08","15:09:21",349842.000,"cc",28336.764,6.00,6,0.100,155349.000,0.200,122684.000,0.300,68261.000,0.500,3260.000,1.000,288.000,5.000,0
"03/09/08","15:09:27",299025.000,"cc",28398.647,6.00,6,0.100,107858.000,0.200,100622.000,0.300,86642.000,0.500,3610.000,1.000,293.000,5.000,0
"03/09/08","15:09:33",269303.000,"cc",28257.711,6.00,6,0.100,90863.000,0.200,83913.000,0.300,90351.000,0.500,3917.000,1.000,259.000,5.000,0
"03/09/08","15:09:39",290372.000,"cc",28307.221,6.00,6,0.100,107255.000,0.200,90842.000,0.300,87463.000,0.500,4580.000,1.000,232.000,5.000,0
"03/09/08","15:09:45",318319.000,"cc",28344.086,6.00,6,0.100,119251.000,0.200,103602.000,0.300,91415.000,0.500,3838.000,1.000,213.000,5.000,0
"03/09/08","15:09:51",334685.000,"cc",28290.719,6.00,6,0.100,135239.000,0.200,109494.000,0.300,85201.000,0.500,4476.000,1.000,275.000,5.000,0
"03/09/08","15:09:57",358377.000,"cc",28305.473,6.00,6,0.100,151337.000,0.200,118388.000,0.300,84175.000,0.500,4213.000,1.000,264.000,5.000,0
"03/09/08","15:10:03",283781.000,"cc",28353.764,6.00,6,0.100,97560.000,0.200,82098.000,0.300,97605.000,0.500,6183.000,1.000,334.000,5.000,1.000
"03/09/08","15:10:09",260462.000,"cc",28258.201,6.00,6,0.100,88660.000,0.200,72688.000,0.300,91941.000,0.500,6905.000,1.000,268.000,5.000,0
"03/09/08","15:10:15",184598.000,"cc",28298.555,6.00,6,0.100,50964.000,0.200,37342.000,0.300,86660.000,0.500,9234.000,1.000,398.000,5.000,0
"03/09/08","15:10:21",223744.000,"cc",28284.414,6.00,6,0.100,67928.000,0.200,53083.000,0.300,94831.000,0.500,7577.000,1.000,325.000,5.000,0
"03/09/08","15:10:27",216915.000,"cc",28334.822,6.00,6,0.100,63401.000,0.200,50094.000,0.300,95482.000,0.500,7606.000,1.000,332.000,5.000,0
"03/09/08","15:10:33",203245.000,"cc",28343.203,6.00,6,0.100,58994.000,0.200,45643.000,0.300,89918.000,0.500,8321.000,1.000,369.000,5.000,0
"03/09/08","15:10:39",205878.000,"cc",28268.834,6.00,6,0.100,59780.000,0.200,46078.000,0.300,91186.000,0.500,8467.000,1.000,367.000,5.000,0
"03/09/08","15:10:45",135196.000,"cc",28332.926,6.00,6,0.100,31545.000,0.200,17922.000,0.300,72194.000,0.500,12879.000,1.000,655.000,5.000,1.000
"03/09/08","15:10:51",195550.000,"cc",28328.617,6.00,6,0.100,59853.000,0.200,45944.000,0.300,80217.000,0.500,9051.000,1.000,485.000,5.000,0
"03/09/08","15:10:57",211312.000,"cc",28324.750,6.00,6,0.100,67310.000,0.200,52771.000,0.300,82929.000,0.500,7917.000,1.000,385.000,5.000,0
"03/09/08","15:11:03",284335.000,"cc",28376.482,6.00,6,0.100,101930.000,0.200,85403.000,0.300,91008.000,0.500,5602.000,1.000,392.000,5.000,0
"03/09/08","15:11:09",293533.000,"cc",28294.977,6.00,6,0.100,106966.000,0.200,89096.000,0.300,91707.000,0.500,5473.000,1.000,291.000,5.000,0
"03/09/08","15:11:15",313352.000,"cc",28318.203,6.00,6,0.100,116771.000,0.200,99264.000,0.300,92447.000,0.500,4633.000,1.000,237.000,5.000,0
"03/09/08","15:11:21",312456.000,"cc",28300.805,6.00,6,0.100,117091.000,0.200,97910.000,0.300,92387.000,0.500,4856.000,1.000,212.000,5.000,0
"03/09/08","15:11:27",271861.000,"cc",28311.205,6.00,6,0.100,96338.000,0.200,77599.000,0.300,91396.000,0.500,6261.000,1.000,267.000,5.000,0
"03/09/08","15:11:33",328551.000,"cc",28326.492,6.00,6,0.100,133078.000,0.200,107480.000,0.300,83650.000,0.500,4140.000,1.000,203.000,5.000,0
"03/09/08","15:11:39",243042.000,"cc",28357.818,6.00,6,0.100,80258.000,0.200,64213.000,0.300,90576.000,0.500,7720.000,1.000,275.000,5.000,0
"03/09/08","15:11:45",220201.000,"cc",28281.629,6.00,6,0.100,71283.000,0.200,54773.000,0.300,85853.000,0.500,7978.000,1.000,312.000,5.000,2.000
"03/09/08","15:11:51",223343.000,"cc",28288.922,6.00,6,0.100,68845.000,0.200,53445.000,0.300,93107.000,0.500,7649.000,1.000,297.000,5.000,0
"03/09/08","15:11:57",345903.000,"cc",28325.391,6.00,6,0.100,151341.000,0.200,113573.000,0.300,76908.000,0.500,3901.000,1.000,180.000,5.000,0
"03/09/08","15:12:03",395267.000,"cc",28296.186,6.00,6,0.100,185727.000,0.200,133141.000,0.300,72889.000,0.500,3348.000,1.000,162.000,5.000,0
"03/09/08","15:12:09",419120.000,"cc",28319.691,6.00,6,0.100,208569.000,0.200,143091.000,0.300,64432.000,0.500,2854.000,1.000,174.000,5.000,0
"03/09/08","15:12:15",430586.000,"cc",28298.266,6.00,6,0.100,218641.000,0.200,146543.000,0.300,62506.000,0.500,2733.000,1.000,163.000,5.000,0
"03/09/08","15:12:21",379595.000,"cc",28376.129,6.00,6,0.100,166538.000,0.200,128788.000,0.300,80264.000,0.500,3785.000,1.000,220.000,5.000,0
"03/09/08","15:12:27",371127.000,"cc",28294.063,6.00,6,0.100,163935.000,0.200,124809.000,0.300,78490.000,0.500,3700.000,1.000,193.000,5.000,0
"03/09/08","15:12:33",347152.000,"cc",28354.854,6.00,6,0.100,147912.000,0.200,111667.000,0.300,82944.000,0.500,4407.000,1.000,222.000,5.000,0
"03/09/08","15:12:39",382640.000,"cc",28298.262,6.00,6,0.100,176197.000,0.200,128725.000,0.300,74061.000,0.500,3482.000,1.000,175.000,5.000,0
"03/09/08","15:12:45",417083.000,"cc",28265.049,6.00,6,0.100,204052.000,0.200,143224.000,0.300,66586.000,0.500,3070.000,1.000,151.000,5.000,0
"03/09/08","15:12:51",407737.000,"cc",28349.389,6.00,6,0.100,193171.000,0.200,140569.000,0.300,70646.000,0.500,3205.000,1.000,146.000,5.000,0
"03/09/08","15:12:57",423262.000,"cc",28258.150,6.00,6,0.100,226990.000,0.200,138810.000,0.300,54870.000,0.500,2483.000,1.000,109.000,5.000,0
"03/09/08","15:13:03",419614.000,"cc",28351.641,6.00,6,0.100,214808.000,0.200,139734.000,0.300,61983.000,0.500,2945.000,1.000,144.000,5.000,0
"03/09/08","15:13:09",454146.000,"cc",28317.184,6.00,6,0.100,265530.000,0.200,143443.000,0.300,43116.000,0.500,1937.000,1.000,120.000,5.000,0
"03/09/08","15:13:15",453026.000,"cc",28309.502,6.00,6,0.100,249821.000,0.200,148831.000,0.300,52039.000,0.500,2168.000,1.000,166.000,5.000,1.000
"03/09/08","15:13:21",442201.000,"cc",28346.217,6.00,6,0.100,239988.000,0.200,146276.000,0.300,53395.000,0.500,2404.000,1.000,136.000,5.000,2.000
"03/09/08","15:13:27",427358.000,"cc",28335.092,6.00,6,0.100,228229.000,0.200,140519.000,0.300,55846.000,0.500,2588.000,1.000,176.000,5.000,0
"03/09/08","15:13:33",434766.000,"cc",28289.693,6.00,6,0.100,230126.000,0.200,146750.000,0.300,55320.000,0.500,2409.000,1.000,161.000,5.000,0
"03/09/08","15:13:39",438446.000,"cc",28319.926,6.00,6,0.100,249165.000,0.200,139775.000,0.300,47163.000,0.500,2192.000,1.000,151.000,5.000,0
"03/09/08","15:13:45",463189.000,"cc",28323.438,6.00,6,0.100,270549.000,0.200,147238.000,0.300,43388.000,0.500,1900.000,1.000,114.000,5.000,0
"03/09/08","15:13:51",444233.000,"cc",28330.186,6.00,6,0.100,235458.000,0.200,150017.000,0.300,56218.000,0.500,2388.000,1.000,152.000,5.000,0
"03/09/08","15:13:57",457775.000,"cc",28238.121,6.00,6,0.100,278750.000,0.200,140240.000,0.300,36976.000,0.500,1703.000,1.000,106.000,5.000,0
"03/09/08","15:14:03",445981.000,"cc",28315.758,6.00,6,0.100,243458.000,0.200,147049.000,0.300,53101.000,0.500,2238.000,1.000,135.000,5.000,0
"03/09/08","15:14:09",447676.000,"cc",28371.094,6.00,6,0.100,265749.000,0.200,139155.000,0.300,40937.000,0.500,1735.000,1.000,100.000,5.000,0
"03/09/08","15:14:15",406385.000,"cc",28338.467,6.00,6,0.100,194190.000,0.200,139750.000,0.300,69080.000,0.500,3127.000,1.000,238.000,5.000,0
"03/09/08","15:14:21",405896.000,"cc",28352.537,6.00,6,0.100,196608.000,0.200,138581.000,0.300,67590.000,0.500,2912.000,1.000,205.000,5.000,0
"03/09/08","15:14:27",406867.000,"cc",28329.449,6.00,6,0.100,210176.000,0.200,136631.000,0.300,57419.000,0.500,2463.000,1.000,178.000,5.000,0
"03/09/08","15:14:33",443409.000,"cc",28321.514,6.00,6,0.100,255409.000,0.200,141702.000,0.300,44303.000,0.500,1864.000,1.000,131.000,5.000,0
"03/09/08","15:14:39",448376.000,"cc",28340.316,6.00,6,0.100,275252.000,0.200,137105.000,0.300,34350.000,0.500,1565.000,1.000,104.000,5.000,0
"03/09/08","15:14:45",435712.000,"cc",28331.490,6.00,6,0.100,231608.000,0.200,147836.000,0.300,53952.000,0.500,2166.000,1.000,150.000,5.000,0
"03/09/08","15:14:51",456639.000,"cc",28285.063,6.00,6,0.100,260225.000,0.200,151377.000,0.300,43218.000,0.500,1706.000,1.000,113.000,5.000,0
"03/09/08","15:14:57",441987.000,"cc",28283.100,6.00,6,0.100,286542.000,0.200,126573.000,0.300,27544.000,0.500,1248.000,1.000,80.000,5.000,0
"03/09/08","15:15:03",462097.000,"cc",28330.834,6.00,6,0.100,260759.000,0.200,153649.000,0.300,45733.000,0.500,1816.000,1.000,140.000,5.000,0
"03/09/08","15:15:09",457961.000,"cc",28303.631,6.00,6,0.100,261322.000,0.200,151430.000,0.300,43387.000,0.500,1693.000,1.000,129.000,5.000,0
"03/09/08","15:15:15",411604.000,"cc",28320.166,6.00,6,0.100,212977.000,0.200,140082.000,0.300,55992.000,0.500,2400.000,1.000,153.000,5.000,0
"03/09/08","15:15:21",458212.000,"cc",28266.514,6.00,6,0.100,270451.000,0.200,146370.000,0.300,39625.000,0.500,1635.000,1.000,131.000,5.000,0
"03/09/08","15:15:27",453632.000,"cc",28344.156,6.00,6,0.100,249100.000,0.200,153669.000,0.300,48582.000,0.500,2129.000,1.000,152.000,5.000,0
"03/09/08","15:15:33",457168.000,"cc",28293.143,6.00,6,0.100,270529.000,0.200,145970.000,0.300,38857.000,0.500,1708.000,1.000,104.000,5.000,0
"03/09/08","15:15:39",462021.000,"cc",28336.981,6.00,6,0.100,270254.000,0.200,149900.000,0.300,40101.000,0.500,1634.000,1.000,132.000,5.000,0
"03/09/08","15:15:45",463667.000,"cc",28342.207,6.00,6,0.100,276701.000,0.200,147827.000,0.300,37528.000,0.500,1487.000,1.000,124.000,5.000,0
"03/09/08","15:15:51",456892.000,"cc",28295.967,6.00,6,0.100,283618.000,0.200,139279.000,0.300,32357.000,0.500,1544.000,1.000,94.000,5.000,0